TimeCST,TemperatureF,Dew PointF,Humidity,Sea Level PressureIn,VisibilityMPH,Wind Direction,Wind SpeedMPH,Gust SpeedMPH,PrecipitationIn,Events,Conditions,WindDirDegrees,DateUTC
12:15 AM,33.8,23.0,65,30.10,10.0,NNW,6.9,-,N/A,,Scattered Clouds,330,2012-12-31 06:15:00
12:35 AM,33.8,21.2,60,30.09,10.0,NNW,4.6,-,N/A,,Scattered Clouds,330,2012-12-31 06:35:00
12:55 AM,33.8,21.2,60,30.10,10.0,NW,3.5,-,N/A,,Scattered Clouds,310,2012-12-31 06:55:00
1:15 AM,32.0,21.2,64,30.12,10.0,NW,5.8,-,N/A,,Scattered Clouds,310,2012-12-31 07:15:00
1:35 AM,30.2,21.2,69,30.12,10.0,NNW,4.6,-,N/A,,Clear,330,2012-12-31 07:35:00
1:55 AM,30.2,21.2,69,30.13,10.0,NNW,8.1,-,N/A,,Clear,340,2012-12-31 07:55:00
2:15 AM,30.2,19.4,64,30.14,10.0,North,8.1,-,N/A,,Clear,360,2012-12-31 08:15:00
2:35 AM,28.4,17.6,64,30.14,10.0,North,8.1,-,N/A,,Scattered Clouds,360,2012-12-31 08:35:00
2:55 AM,28.4,17.6,64,30.15,10.0,NNW,5.8,-,N/A,,Clear,340,2012-12-31 08:55:00
3:15 AM,28.4,17.6,64,30.15,10.0,North,5.8,-,N/A,,Clear,360,2012-12-31 09:15:00
3:35 AM,28.4,17.6,64,30.15,10.0,North,8.1,-,N/A,,Clear,350,2012-12-31 09:35:00
3:55 AM,26.6,17.6,69,30.14,10.0,North,8.1,-,N/A,,Clear,360,2012-12-31 09:55:00
4:15 AM,26.6,17.6,69,30.14,10.0,North,5.8,-,N/A,,Scattered Clouds,350,2012-12-31 10:15:00
4:35 AM,26.6,17.6,69,30.14,10.0,North,8.1,-,N/A,,Scattered Clouds,10,2012-12-31 10:35:00
4:55 AM,26.6,17.6,69,30.14,10.0,NNE,11.5,-,N/A,,Clear,20,2012-12-31 10:55:00
5:15 AM,26.6,17.6,69,30.14,10.0,North,8.1,-,N/A,,Clear,10,2012-12-31 11:15:00
5:35 AM,26.6,15.8,64,30.15,10.0,North,5.8,-,N/A,,Scattered Clouds,10,2012-12-31 11:35:00
5:55 AM,26.6,15.8,64,30.16,10.0,North,6.9,-,N/A,,Scattered Clouds,10,2012-12-31 11:55:00
6:15 AM,26.6,17.6,69,30.15,10.0,NNE,6.9,-,N/A,,Scattered Clouds,20,2012-12-31 12:15:00
6:35 AM,26.6,17.6,69,30.16,10.0,NNE,11.5,-,N/A,,Clear,20,2012-12-31 12:35:00
6:55 AM,24.8,15.8,69,30.16,10.0,NNE,11.5,-,N/A,,Scattered Clouds,20,2012-12-31 12:55:00
7:15 AM,24.8,15.8,69,30.17,10.0,North,12.7,-,N/A,,Scattered Clouds,10,2012-12-31 13:15:00
7:35 AM,24.8,15.8,69,30.17,10.0,NNE,13.8,17.3,N/A,,Mostly Cloudy,20,2012-12-31 13:35:00
7:55 AM,24.8,15.8,69,30.16,10.0,NNE,11.5,-,N/A,,Mostly Cloudy,20,2012-12-31 13:55:00
8:15 AM,23.0,15.8,74,30.16,10.0,NNE,16.1,-,N/A,,Scattered Clouds,20,2012-12-31 14:15:00
8:35 AM,23.0,15.8,74,30.18,10.0,NNE,16.1,-,N/A,,Clear,20,2012-12-31 14:35:00
8:55 AM,23.0,15.8,74,30.18,10.0,NNE,15.0,-,N/A,,Clear,20,2012-12-31 14:55:00
9:15 AM,23.0,15.8,74,30.19,10.0,NNE,11.5,-,N/A,,Scattered Clouds,20,2012-12-31 15:15:00
9:35 AM,23.0,15.8,74,30.20,10.0,NE,13.8,18.4,N/A,,Mostly Cloudy,40,2012-12-31 15:35:00
9:55 AM,23.0,15.8,74,30.21,10.0,NE,9.2,-,N/A,,Overcast,40,2012-12-31 15:55:00
10:15 AM,23.0,17.6,80,30.21,7.0,NE,11.5,-,N/A,,Overcast,50,2012-12-31 16:15:00
10:35 AM,24.8,17.6,74,30.22,7.0,NE,9.2,-,N/A,,Overcast,40,2012-12-31 16:35:00
10:55 AM,24.8,17.6,74,30.22,7.0,NE,9.2,-,N/A,,Overcast,40,2012-12-31 16:55:00
11:15 AM,24.8,17.6,74,30.22,10.0,NE,9.2,-,N/A,,Mostly Cloudy,50,2012-12-31 17:15:00
11:35 AM,24.8,17.6,74,30.21,10.0,NE,10.4,-,N/A,,Mostly Cloudy,40,2012-12-31 17:35:00
11:55 AM,26.6,17.6,69,30.23,10.0,NE,9.2,-,N/A,,Mostly Cloudy,50,2012-12-31 17:55:00
12:15 PM,26.6,17.6,69,30.21,10.0,NE,8.1,-,N/A,,Mostly Cloudy,50,2012-12-31 18:15:00
12:35 PM,26.6,17.6,69,30.20,10.0,NNE,10.4,-,N/A,,Overcast,30,2012-12-31 18:35:00
12:55 PM,26.6,17.6,69,30.17,10.0,NE,10.4,-,N/A,,Scattered Clouds,40,2012-12-31 18:55:00
1:15 PM,26.6,17.6,69,30.16,10.0,NNE,13.8,-,N/A,,Scattered Clouds,30,2012-12-31 19:15:00
1:35 PM,26.6,15.8,64,30.15,10.0,NE,12.7,-,N/A,,Clear,40,2012-12-31 19:35:00
1:55 PM,26.6,17.6,69,30.14,10.0,NE,12.7,-,N/A,,Clear,40,2012-12-31 19:55:00
2:15 PM,26.6,15.8,64,30.14,10.0,NNE,13.8,-,N/A,,Clear,30,2012-12-31 20:15:00
2:35 PM,26.6,15.8,64,30.15,10.0,NNE,13.8,-,N/A,,Scattered Clouds,30,2012-12-31 20:35:00
2:55 PM,26.6,15.8,64,30.15,10.0,NNE,12.7,-,N/A,,Clear,30,2012-12-31 20:55:00
3:15 PM,26.6,15.8,64,30.14,10.0,NNE,11.5,-,N/A,,Scattered Clouds,30,2012-12-31 21:15:00
3:35 PM,26.6,15.8,64,30.16,10.0,NNE,13.8,-,N/A,,Scattered Clouds,30,2012-12-31 21:35:00
3:55 PM,26.6,15.8,64,30.16,10.0,NNE,12.7,-,N/A,,Scattered Clouds,30,2012-12-31 21:55:00
4:15 PM,26.6,15.8,64,30.16,10.0,NNE,11.5,-,N/A,,Scattered Clouds,30,2012-12-31 22:15:00
4:35 PM,26.6,17.6,69,30.17,7.0,NNE,12.7,-,N/A,,Mostly Cloudy,30,2012-12-31 22:35:00
4:55 PM,24.8,17.6,74,30.17,3.0,NNE,10.4,-,N/A,Snow,Light Snow,30,2012-12-31 22:55:00
5:15 PM,24.8,17.6,74,30.18,4.0,NNE,9.2,-,N/A,Snow,Light Snow,30,2012-12-31 23:15:00
5:35 PM,24.8,17.6,74,30.19,1.8,NE,8.1,-,N/A,Snow,Light Snow,50,2012-12-31 23:35:00
5:55 PM,24.8,17.6,74,30.20,1.2,NE,5.8,-,N/A,Snow,Light Snow,40,2012-12-31 23:55:00
6:15 PM,23.0,17.6,80,30.20,1.2,NE,6.9,-,N/A,Snow,Snow,40,2013-01-01 00:15:00
6:35 PM,23.0,17.6,80,30.20,1.2,NNE,9.2,-,N/A,Snow,Light Snow,30,2013-01-01 00:35:00
6:55 PM,23.0,17.6,80,30.21,1.8,NNE,8.1,-,N/A,Snow,Light Snow,20,2013-01-01 00:55:00
7:15 PM,23.0,17.6,80,30.22,2.5,NE,5.8,-,N/A,Snow,Light Snow,40,2013-01-01 01:15:00
7:35 PM,23.0,17.6,80,30.21,3.0,NNE,6.9,-,N/A,Snow,Light Snow,30,2013-01-01 01:35:00
8:15 PM,23.0,15.8,74,30.21,10.0,NNE,8.1,-,N/A,,Mostly Cloudy,30,2013-01-01 02:15:00
8:35 PM,23.0,15.8,74,30.21,10.0,NNE,8.1,-,N/A,,Overcast,30,2013-01-01 02:35:00
8:55 PM,21.2,15.8,80,30.21,10.0,NNE,9.2,-,N/A,,Overcast,30,2013-01-01 02:55:00
9:35 PM,21.2,14.0,74,30.21,10.0,NNE,11.5,-,N/A,,Overcast,30,2013-01-01 03:35:00
10:15 PM,21.2,14.0,74,30.22,10.0,NNE,9.2,-,N/A,,Overcast,20,2013-01-01 04:15:00
10:35 PM,21.2,14.0,74,30.23,10.0,NNE,11.5,-,N/A,,Overcast,30,2013-01-01 04:35:00
10:55 PM,21.2,12.2,68,30.24,10.0,NNE,10.4,-,N/A,,Overcast,30,2013-01-01 04:55:00
11:15 PM,19.4,12.2,74,30.24,10.0,NNE,9.2,-,N/A,,Overcast,30,2013-01-01 05:15:00
11:35 PM,19.4,12.2,74,30.25,10.0,NNE,9.2,-,N/A,,Overcast,30,2013-01-01 05:35:00
11:55 PM,17.6,10.4,73,30.25,10.0,NNE,6.9,-,N/A,,Mostly Cloudy,20,2013-01-01 05:55:00